Content
SEND FEEDBACK

Daily
Averages
Monthly
Summary
United States of America

WILMINGTON, NORTH CAROLINA


Home > North America > United States > North Carolina
Elevation: 72 feet     Latitude: 34 16N     Longitude: 077 54W

WEATHER
 
SELECT A DAY
Number of Records: 212,284;   Date Range: 1/1/95 - 10/20/14
 
SHARE

PRINT THIS DATA

[ ← Previous Day ]
WEATHER ALMANAC - JULY 13, 2013
[ Next Day → ]
[ °C ]   °F
Weather ElementAverageHighLow
Temperature77.3 °F82.9 °F (1:53 pm)71.6 °F (3:19 am)
Dewpoint72.8 °F75.2 °F (9:14 am)71.1 °F (1:53 am)
Humidity86.2 %100 % (3:19 am)74 % (10:53 am)
Barometer30.07 in30.17 in (10:24 pm)29.99 in (1:16 am)
Wind Speed8.9 mph20.7 mph (2:13 pm)
Wind Gust29.9 mph (2:22 pm)
Weather ElementAverage
Visibility8.3 mi
Wind DirectionESE (126.3 °)

Weather ElementTotal
Precipitation1.77 in
Cooling Degree Days12.3 (Base 65)
Growing Degree Days27.3 (Base 50)
Averaged from 60 records on July 13, 2013
WEATHER CONDITIONS BREAKOUT
WIND DIRECTION BREAKOUT
WEATHER BY HOUR - JULY 13, 2013
[ °C ]   °F
Local TimeTemperatureDewpointHumidityBarometerVisibilityWind DirectionWind SpeedGust SpeedPrecipitationEventsConditions
1:16 AM73.4 °F71.6 °F94 %29.99 in10.0 miCalmOvercast
1:30 AM73.4 °F71.6 °F94 %29.99 in10.0 miCalmScattered Clouds
1:53 AM73.0 °F71.1 °F93 %29.99 in10.0 miEast (90°)3.5 mphPartly Cloudy
2:53 AM72.0 °F71.1 °F97 %29.99 in10.0 miNNW (330°)4.6 mphPartly Cloudy
3:19 AM71.6 °F71.6 °F100 %29.99 in10.0 miNNW (340°)3.5 mphMostly Cloudy
3:53 AM72.0 °F71.1 °F97 %30.00 in10.0 miNorth (10°)3.5 mphOvercast
4:29 AM71.6 °F71.6 °F100 %29.99 in10.0 miNorth (360°)3.5 mphMostly Cloudy
4:53 AM73.0 °F71.1 °F93 %30.00 in10.0 miCalmMostly Cloudy
5:02 AM73.4 °F71.6 °F94 %30.00 in10.0 miNNE (30°)3.5 mphMostly Cloudy
5:35 AM73.4 °F71.6 °F94 %30.00 in10.0 miNE (40°)4.6 mphOvercast
5:53 AM73.0 °F71.1 °F93 %30.00 in10.0 miNE (40°)4.6 mph0.01 inRainLight Rain
6:01 AM73.4 °F71.6 °F94 %30.01 in10.0 miNE (40°)4.6 mph0.00 inOvercast
6:11 AM73.4 °F71.6 °F94 %30.01 in10.0 miNE (50°)4.6 mph0.00 inOvercast
6:51 AM73.4 °F71.6 °F94 %30.02 in10.0 miEast (100°)3.5 mph0.00 inScattered Clouds
6:53 AM73.9 °F72.0 °F93 %30.02 in10.0 miEast (100°)3.5 mph0.00 inPartly Cloudy
7:53 AM77.0 °F73.9 °F90 %30.04 in10.0 miESE (120°)5.8 mphMostly Cloudy
8:53 AM77.0 °F73.9 °F90 %30.06 in7.0 miEast (90°)6.9 mphOvercast
9:07 AM77.0 °F73.4 °F89 %30.07 in1.2 miESE (120°)6.9 mph0.04 inRainHeavy Rain
9:14 AM77.0 °F75.2 °F94 %30.06 in1.5 miSE (130°)4.6 mph0.18 inRainLight Rain
9:16 AM78.8 °F75.2 °F89 %30.06 in3.0 miSE (130°)4.6 mph0.18 inRainLight Rain
9:46 AM78.8 °F73.4 °F83 %30.06 in10.0 miESE (120°)6.9 mph0.18 inOvercast
9:53 AM80.1 °F75.0 °F85 %30.06 in10.0 miESE (120°)6.9 mph0.18 inMostly Cloudy
10:17 AM78.8 °F73.4 °F83 %30.06 in10.0 miSE (130°)12.7 mph19.6 mphMostly Cloudy
10:39 AM80.6 °F73.4 °F79 %30.07 in10.0 miESE (120°)15.0 mph19.6 mphOvercast
10:53 AM82.0 °F73.0 °F74 %30.07 in10.0 miESE (110°)11.5 mph18.4 mphMostly Cloudy
11:26 AM82.4 °F73.4 °F74 %30.07 in10.0 miESE (120°)10.4 mph19.6 mphMostly Cloudy
11:48 AM78.8 °F73.4 °F83 %30.08 in1.5 miSE (140°)13.8 mph27.6 mph0.03 inRainHeavy Rain
11:53 AM75.9 °F73.0 °F91 %30.08 in1.5 miSSE (160°)11.5 mph25.3 mph0.09 inRainRain
11:56 AM75.2 °F73.4 °F94 %30.08 in2.0 miSSE (160°)9.2 mph23.0 mph0.01 inRainRain
12:04 PM75.2 °F73.4 °F94 %30.09 in4.0 miSE (140°)10.4 mph0.01 inRainLight Rain
12:06 PM75.2 °F73.4 °F94 %30.09 in1.8 miSE (130°)12.7 mph21.9 mph0.01 inRainRain
12:14 PM75.2 °F73.4 °F94 %30.08 in1.0 miSE (140°)10.4 mph23.0 mph0.17 inRainRain
12:19 PM75.2 °F73.4 °F94 %30.08 in2.0 miSSE (150°)4.6 mph17.3 mph0.18 inRainLight Rain
12:26 PM75.2 °F73.4 °F94 %30.08 in7.0 miSSE (150°)5.8 mph0.19 inRainLight Rain
12:53 PM78.1 °F75.0 °F90 %30.08 in10.0 miSE (140°)8.1 mph0.19 inOvercast
1:09 PM80.6 °F75.2 °F84 %30.08 in10.0 miESE (120°)12.7 mph20.7 mph0.00 inOvercast
1:37 PM82.4 °F75.2 °F79 %30.08 in10.0 miESE (120°)16.1 mph21.9 mph0.00 inOvercast
1:53 PM82.9 °F73.9 °F74 %30.08 in10.0 miESE (120°)18.4 mph27.6 mph0.00 inOvercast
2:13 PM82.4 °F75.2 °F79 %30.07 in10.0 miESE (120°)20.7 mph25.3 mphOvercast
2:22 PM82.4 °F75.2 °F79 %30.07 in10.0 miSE (140°)17.3 mph29.9 mphOvercast
2:39 PM75.2 °F73.4 °F94 %30.09 in2.5 miSouth (170°)15.0 mph29.9 mph0.01 inRainRain
2:53 PM75.0 °F72.0 °F90 %30.09 in4.0 miSE (130°)9.2 mph19.6 mph0.05 inRainRain
3:53 PM81.0 °F73.9 °F79 %30.06 in10.0 miSE (130°)10.4 mph23.0 mph0.06 inPartly Cloudy
4:53 PM81.0 °F73.9 °F79 %30.07 in10.0 miSE (130°)17.3 mph29.9 mphMostly Cloudy
5:31 PM80.6 °F73.4 °F79 %30.08 in10.0 miSE (140°)15.0 mph28.8 mphScattered Clouds
5:53 PM81.0 °F72.0 °F74 %30.08 in10.0 miSE (140°)13.8 mph29.9 mphPartly Cloudy
6:51 PM80.6 °F73.4 °F79 %30.10 in10.0 miSE (140°)13.8 mph24.2 mphMostly Cloudy
6:53 PM80.1 °F73.0 °F79 %30.10 in10.0 miSE (140°)15.0 mph23.0 mphMostly Cloudy
7:19 PM78.8 °F71.6 °F78 %30.11 in10.0 miSSE (150°)12.7 mph21.9 mphScattered Clouds
7:38 PM78.8 °F71.6 °F78 %30.11 in10.0 miSE (140°)11.5 mph18.4 mphMostly Cloudy
7:53 PM79.0 °F72.0 °F79 %30.12 in10.0 miSE (140°)6.9 mph18.4 mphOvercast
8:06 PM78.8 °F71.6 °F78 %30.12 in10.0 miSSE (150°)11.5 mph17.3 mphOvercast
8:26 PM78.8 °F71.6 °F78 %30.13 in10.0 miSE (140°)10.4 mph18.4 mphOvercast
8:53 PM79.0 °F71.1 °F77 %30.13 in10.0 miSE (140°)11.5 mph16.1 mphOvercast
9:25 PM78.8 °F71.6 °F78 %30.13 in10.0 miSE (140°)6.9 mphOvercast
9:53 PM78.1 °F71.1 °F79 %30.15 in10.0 miSE (140°)11.5 mphOvercast
10:08 PM78.8 °F71.6 °F78 %30.16 in10.0 miSE (140°)9.2 mphMostly Cloudy
10:24 PM78.8 °F71.6 °F78 %30.17 in10.0 miSE (140°)8.1 mphOvercast
10:53 PM78.1 °F71.1 °F79 %30.17 in10.0 miSE (140°)8.1 mph0.00 inRainLight Rain
11:53 PM77.0 °F72.0 °F84 %30.17 in10.0 miSE (130°)5.8 mph0.00 inPartly Cloudy
Hourly data recorded from KILM, located miles away from Wilmington, North Carolina







STORIES FROM OUR PARTNERS